Regional Weather Roundup
Issued by NWS Columbia, SC

Home | Current Version | Previous Version | Text Only | Print | Product List | Glossary On
Versions: 1 2 3 4 5 6 7 8 9 10 11 12 13 14 15 16 17 18 19 20 21 22 23 24 25 26 27
000
ASUS42 KCAE 211210
RWRCAE
REGIONAL WEATHER ROUNDUP
NATIONAL WEATHER SERVICE COLUMBIA SC
800 AM EDT MON APR 21 2014

NOTE: "FAIR" INDICATES FEW OR NO CLOUDS BELOW 12,000 FEET WITH NO
SIGNIFICANT WEATHER AND/OR OBSTRUCTIONS TO VISIBILITY.

NOT ALL STATIONS ARE QUALITY CONTROLLED BY THE NATIONAL
WEATHER SERVICE. USE DATA WITH CAUTION...ESPECIALLY
DEWPOINT OBSERVATIONS.

SCZ001>056-GAZ040-063>065-077-211300-
...UPSTATE SOUTH CAROLINA...

CITY           SKY/WX    TMP DP  RH WIND       PRES   REMARKS
ANDERSON       SUNNY     51  41  68 CALM      30.19R
6HR MIN TEMP:  44; 6HR MAX TEMP:  51;

LIBERTY        FAIR      39  19  46 MISG      30.18S
6HR MIN TEMP:  37; 6HR MAX TEMP:  73;

SPARTANBURG    FAIR      50  41  71 NE6       30.20R
CLEMSON        SUNNY     51  44  77 N5        30.20R
6HR MIN TEMP:  48; 6HR MAX TEMP:  53;

GREENVILLE     SUNNY     52  36  54 NE9       30.20R
6HR MIN TEMP:  48; 6HR MAX TEMP:  55;

GREENWOOD      SUNNY     49  40  71 N3        30.20R
6HR MIN TEMP:  43; 6HR MAX TEMP:  49;

GREER          SUNNY     50  38  63 N3        30.19R
6HR MIN TEMP:  46; 6HR MAX TEMP:  52;

ROCK HILL      SUNNY     49  39  68 NE9       30.19R
6HR MIN TEMP:  42; 6HR MAX TEMP:  50;

CHESTER        FAIR      50  43  76 N8        30.19R
LAURENS        FAIR      48  39  71 N7        30.20R


...CENTRAL SOUTH CAROLINA...

CITY           SKY/WX    TMP DP  RH WIND       PRES   REMARKS
COLUMBIA APT   SUNNY     53  40  61 N7        30.16R
6HR MIN TEMP:  49; 6HR MAX TEMP:  58;

COLUMBIA OWENS SUNNY     53  40  61 VRB6      30.17R
6HR MIN TEMP:  51; 6HR MAX TEMP:  56;

DARLINGTON     SUNNY     48  36  61 N10       30.16R
6HR MIN TEMP:  48; 6HR MAX TEMP:  57;

FLORENCE       SUNNY     52  40  63 N10       30.13R
6HR MIN TEMP:  50; 6HR MAX TEMP:  59;

MCENTIRE ANGB  SUNNY     52  40  62 N8        30.15R
6HR MIN TEMP:  51; 6HR MAX TEMP:  57;

ORANGEBURG     SUNNY     54  42  64 N8        30.14R
6HR MIN TEMP:  51; 6HR MAX TEMP:  57;

SUMTER SHAW    SUNNY     52  41  66 N10       30.13R
6HR MIN TEMP:  49; 6HR MAX TEMP:  54;

NEWBERRY       FAIR      48  41  76 N6        30.21R
AIKEN          FAIR      50  45  81 N7        30.19R
BARNWELL       FAIR      54  45  71 N8        30.15R
CAMDEN         FAIR      50  37  62 N9        30.17R
LANCASTER      FAIR      45  41  87 N7        30.19R
WINNSBORO      FAIR      48  37  66 N8        30.17R


...EASTERN AND COASTAL SOUTH CAROLINA...

CITY           SKY/WX    TMP DP  RH WIND       PRES   REMARKS
MYRTLE BEACH   MOSUNNY   52  43  71 N18       30.08R
N MYRTLE BCH   CLOUDY    52  44  74 N12G21    30.07R
6HR MIN TEMP:  50; 6HR MAX TEMP:  56;

CONWAY         FAIR      52  45  76 N7        30.11R
MARION         FAIR      52  41  66 N10G17    30.12R
HARTSVILLE     FAIR      50  36  57 N12       30.15R
FLORENCE       SUNNY     52  40  63 N10       30.13R
6HR MIN TEMP:  50; 6HR MAX TEMP:  59;

DARLINGTON     SUNNY     48  36  61 N10       30.16R
6HR MIN TEMP:  48; 6HR MAX TEMP:  57;

CHARLESTON APT SUNNY     57  44  62 N9        30.09R
6HR MIN TEMP:  55; 6HR MAX TEMP:  61;

MOUNT PLEASANT FAIR     N/A N/A N/A N8        30.08R
WALTERBORO     SUNNY     54  48  82 N6        30.12R
BEAUFORT       SUNNY     58  48  69 NE9       30.10R
6HR MIN TEMP:  56; 6HR MAX TEMP:  62;



...EASTERN GEORGIA...

CITY           SKY/WX    TMP DP  RH WIND       PRES   REMARKS
AUGUSTA BUSH F SUNNY     51  43  74 N8        30.17R
6HR MIN TEMP:  44; 6HR MAX TEMP:  51;

AUGUSTA DANIEL SUNNY     52  41  66 N12       30.17R
6HR MIN TEMP:  50; 6HR MAX TEMP:  58;

THOMSON        SUNNY     42  42 100 CALM      30.22R
6HR MIN TEMP:  39; 6HR MAX TEMP:  46;

WASHINGTON     FAIR      48  43  81 N3        30.18R
CLAXTON        FAIR     N/A N/A N/A CALM      30.14R
SYLVANIA       SUNNY     55  47  74 N6        30.15R
6HR MIN TEMP:  54; 6HR MAX TEMP:  59;

STATESBORO     MOSUNNY   53  49  86 N5        30.14R
6HR MIN TEMP:  49; 6HR MAX TEMP:  54;

SAVANNAH       SUNNY     56  49  77 N7        30.12R
6HR MIN TEMP:  53; 6HR MAX TEMP:  60;



...SOUTHERN NORTH CAROLINA...

CITY           SKY/WX    TMP DP  RH WIND       PRES   REMARKS
CHARLOTTE      MOSUNNY   49  38  65 N8        30.19R
6HR MIN TEMP:  42; 6HR MAX TEMP:  54;

MONROE         SUNNY     48  36  63 N12       30.17R
6HR MIN TEMP:  45; 6HR MAX TEMP:  52;

WADESBORO      SUNNY     47  37  68 N5        30.18R
6HR MIN TEMP:  38; 6HR MAX TEMP:  49;

ROCKINGHAM       N/A     47  37  68 N8        30.15S
6HR MIN TEMP:  46; 6HR MAX TEMP:  56;

RUTHERFORDTON  SUNNY     44  38  80 W8        30.21R
6HR MIN TEMP:  38; 6HR MAX TEMP:  51;

ASHEVILLE      SUNNY     39  37  92 CALM      30.21R
6HR MIN TEMP:  36; 6HR MAX TEMP:  43;


$$



USA.gov is the U.S. government's official web portal to all federal, state and local government web resources and services.